Find Yaogan 43-02-06

NORAD ID: 60950 Int'l Des: 2024-156 Owner: ZZB Country: CN Constellation: yaogan operational
LEOCIRCULAR

リアルタイム位置

3D地球を読み込み中...

Yaogan 43-02-06について

説明を読み込み中...

次回通過

Passes for default location (London). Set your location on the main map for personalized predictions.

高度履歴

Loading altitude history...

軌道要素

1 60950U 24156F 26134.81364837 .00005429 00000-0 22591-3 0 9996
2 60950 34.9941 47.7775 0000866 312.9705 47.0937 15.23124462 94357
Epoch: May 14, 2026 • Age: 44 hours

現在のステータス

高度 502.0 km
速度 7.61 km/s
衛星直下点 -27.56°S, 116.02°W
打ち上げ日 Sep 3, 2024
運用期間 1.6 years
タイプ military

技術仕様

分類 Payload
質量 300.00 kg
乾燥質量 300.00 kg
総質量 300.00 kg
長さ 2.50 m
直径 2.50 m
スパン 5.00 m
形状 Box + 2 Pan
製造者 SAST
フェーズステータス In Orbit
所有者/国 ZZB/CN

Most Searched